Hutchinson, KS

7:40 PM CST on December 07, 2016 (GMT -0600)
Hutchinson Municipal

Weather History for KHUT - February, 2014

Change the Weather History Date:

Monday, February 24, 2014

  Actual Average Record
Temperature  
Mean Temperature 32 °F -  
Max Temperature 46 °F 46 °F 69 °F (1998)
Min Temperature 18 °F 23 °F 3 °F (2003)
Degree Days  
Heating Degree Days 33    
Moisture  
Dew Point 18 °F    
Average Humidity 59    
Maximum Humidity 78    
Minimum Humidity 38    
Precipitation  
Precipitation 0.00 in - - ()
Sea Level Pressure  
Sea Level Pressure 30.21 in    
Wind  
Wind Speed 8 mph (East)    
Max Wind Speed 12 mph    
Max Gust Speed 20 mph    
Visibility 10 miles    
Events      
Averages and records for this station are not official NWS values.
T = Trace of Precipitation, MM = Missing Value Source: NWS Daily Summary

Daily Weather History Graph

Daily Weather History Graph

Search for Another Location

Airport or City:

Trip Planner

Search our weather history database for the weather conditions in past years. The results will help you decide how hot, cold, wet, or windy it might be!

Date:

Astronomy

Feb. 24, 2014 Rise Set
Actual Time 7:10 AM CST 6:19 PM CST
Civil Twilight 6:43 AM CST 6:46 PM CST
Nautical Twilight 6:12 AM CST 7:16 PM CST
Astronomical Twilight 5:42 AM CST 7:47 PM CST
Moon 3:07 AM CST (2/24) 1:25 PM CST (2/24)
Length of Visible Light 12h 02m
Length of Day
11h 09m
Waning Crescent, 28% of the Moon is Illuminated
Feb 24
Waning Crescent
Mar 1
New
Mar 8
First Quarter
Mar 16
Full
Mar 23
Last Quarter

Hourly Weather History & Observations

Time (CST) Temp. Windchill Dew Point Humidity Pressure Visibility Wind Dir Wind Speed Gust Speed Precip Events Conditions
12:52 AM 21.9 °F 13.4 °F 12.9 °F 68% 30.31 in 10.0 mi NE 6.9 mph - N/A   Clear
1:52 AM 21.0 °F 12.4 °F 12.9 °F 71% 30.33 in 10.0 mi North 6.9 mph - N/A   Clear
2:52 AM 21.0 °F 13.4 °F 12.9 °F 71% 30.31 in 10.0 mi NE 5.8 mph - N/A   Clear
3:52 AM 19.9 °F 11.1 °F 12.9 °F 74% 30.29 in 10.0 mi NE 6.9 mph - N/A   Clear
4:52 AM 19.9 °F 11.1 °F 12.9 °F 74% 30.28 in 10.0 mi East 6.9 mph - N/A   Clear
5:52 AM 19.0 °F 11.1 °F 12.9 °F 77% 30.28 in 10.0 mi East 5.8 mph - N/A   Clear
6:52 AM 18.0 °F 11.1 °F 12.0 °F 78% 30.29 in 10.0 mi East 4.6 mph - N/A   Clear
7:52 AM 19.9 °F 12.1 °F 14.0 °F 78% 30.30 in 10.0 mi ENE 5.8 mph - N/A   Clear
8:52 AM 26.1 °F 15.6 °F 15.1 °F 63% 30.30 in 10.0 mi East 11.5 mph - N/A   Clear
9:52 AM 30.0 °F 21.1 °F 15.1 °F 54% 30.28 in 10.0 mi ESE 10.4 mph - N/A   Clear
10:52 AM 34.0 °F 26.6 °F 16.0 °F 48% 30.26 in 10.0 mi ESE 9.2 mph - N/A   Clear
11:52 AM 37.9 °F 30.5 °F 16.0 °F 41% 30.23 in 10.0 mi SE 11.5 mph - N/A   Clear
12:52 PM 42.1 °F 35.7 °F 18.0 °F 38% 30.18 in 10.0 mi SSE 11.5 mph 19.6 mph N/A   Clear
1:52 PM 43.0 °F 37.2 °F 19.0 °F 38% 30.13 in 10.0 mi South 10.4 mph 19.6 mph N/A   Clear
2:52 PM 45.0 °F 39.7 °F 21.9 °F 40% 30.10 in 10.0 mi South 10.4 mph - N/A   Clear
3:52 PM 46.9 °F - 25.0 °F 42% 30.06 in 10.0 mi South 9.2 mph - N/A   Clear
4:52 PM 46.9 °F - 27.0 °F 46% 30.05 in 10.0 mi SSW 9.2 mph - N/A   Clear
5:52 PM 45.0 °F 40.1 °F 27.0 °F 49% 30.06 in 10.0 mi South 9.2 mph - N/A   Clear
6:52 PM 39.0 °F - 26.1 °F 60% 30.08 in 10.0 mi Calm Calm - N/A   Clear
7:52 PM 28.9 °F 23.9 °F 21.9 °F 75% 30.14 in 10.0 mi NE 4.6 mph - N/A   Clear
8:52 PM 37.0 °F 31.6 °F 25.0 °F 62% 30.16 in 10.0 mi NE 6.9 mph - N/A   Clear
9:52 PM 34.0 °F 26.0 °F 21.0 °F 59% 30.20 in 10.0 mi NE 10.4 mph - N/A   Clear
10:52 PM 32.0 °F 23.6 °F 19.0 °F 59% 30.23 in 10.0 mi NE 10.4 mph - N/A   Clear
11:52 PM 30.9 °F 23.5 °F 19.0 °F 61% 30.22 in 10.0 mi NE 8.1 mph - N/A   Clear